Time,TemperatureF,DewpointF,PressureIn,WindDirection,WindDirectionDegrees,WindSpeedMPH,WindSpeedGustMPH,Humidity,HourlyPrecipIn,Conditions,Clouds,dailyrainin,SoftwareType,DateUTC
2013-07-17 00:00:00,73.9,70.5,30.26,NE,45,0.0,0.0,89,0.00,,,0.08,WUHU21523XXSP,2013-07-17 04:00:00,
2013-07-17 00:05:00,73.9,70.5,30.26,NE,45,0.0,0.0,89,0.00,,,0.00,WUHU21523XXSP,2013-07-17 04:05:00,
2013-07-17 00:10:00,73.9,70.5,30.25,NE,45,0.0,0.0,89,0.00,,,0.00,WUHU21523XXSP,2013-07-17 04:10:00,
2013-07-17 00:15:00,73.9,70.5,30.25,NE,45,0.0,0.0,89,0.00,,,0.00,WUHU21523XXSP,2013-07-17 04:15:00,
2013-07-17 00:20:00,73.8,70.4,30.25,NE,45,0.0,0.0,89,0.00,,,0.00,WUHU21523XXSP,2013-07-17 04:20:00,
2013-07-17 00:25:00,73.8,70.4,30.25,NE,45,0.0,0.0,89,0.00,,,0.00,WUHU21523XXSP,2013-07-17 04:25:00,
2013-07-17 00:30:00,73.8,70.4,30.25,NE,45,0.0,0.0,89,0.00,,,0.00,WUHU21523XXSP,2013-07-17 04:30:00,
2013-07-17 00:35:00,73.8,70.4,30.25,NE,45,0.0,0.0,89,0.00,,,0.00,WUHU21523XXSP,2013-07-17 04:35:00,
2013-07-17 00:40:00,73.8,70.4,30.25,NE,45,0.0,0.0,89,0.00,,,0.00,WUHU21523XXSP,2013-07-17 04:40:00,
2013-07-17 00:45:00,73.6,70.2,30.24,NE,45,0.0,0.0,89,0.00,,,0.00,WUHU21523XXSP,2013-07-17 04:45:00,
2013-07-17 00:50:00,73.6,70.2,30.25,NE,45,0.0,0.0,89,0.00,,,0.00,WUHU21523XXSP,2013-07-17 04:50:00,
2013-07-17 00:55:00,73.6,70.2,30.24,NE,45,0.0,0.0,89,0.00,,,0.00,WUHU21523XXSP,2013-07-17 04:55:00,
2013-07-17 01:00:00,73.8,70.4,30.24,NE,45,0.0,0.0,89,0.00,,,0.00,WUHU21523XXSP,2013-07-17 05:00:00,
2013-07-17 01:05:00,73.8,70.2,30.24,NE,45,0.0,0.0,89,0.00,,,0.00,WUHU21523XXSP,2013-07-17 05:05:00,
2013-07-17 01:10:00,73.8,70.4,30.24,NE,45,0.0,0.0,89,0.00,,,0.00,WUHU21523XXSP,2013-07-17 05:10:00,
2013-07-17 01:15:00,73.6,70.2,30.24,NE,45,0.0,0.0,89,0.00,,,0.00,WUHU21523XXSP,2013-07-17 05:15:00,
2013-07-17 01:20:00,73.6,70.2,30.25,NE,45,0.0,0.0,89,0.00,,,0.00,WUHU21523XXSP,2013-07-17 05:20:00,
2013-07-17 01:25:00,73.6,70.2,30.25,NE,45,0.0,0.0,89,0.00,,,0.00,WUHU21523XXSP,2013-07-17 05:25:00,
2013-07-17 01:30:00,73.6,70.2,30.25,NE,45,0.0,0.0,89,0.00,,,0.00,WUHU21523XXSP,2013-07-17 05:30:00,
2013-07-17 01:35:00,73.6,70.2,30.24,NE,45,0.0,0.0,89,0.00,,,0.00,WUHU21523XXSP,2013-07-17 05:35:00,
2013-07-17 01:40:00,73.6,70.2,30.24,NE,45,0.0,0.0,89,0.00,,,0.00,WUHU21523XXSP,2013-07-17 05:40:00,
2013-07-17 01:45:00,73.6,70.2,30.24,NE,45,0.0,0.0,89,0.00,,,0.00,WUHU21523XXSP,2013-07-17 05:45:00,
2013-07-17 01:50:00,73.6,70.2,30.24,NE,45,0.0,0.0,89,0.00,,,0.00,WUHU21523XXSP,2013-07-17 05:50:00,
2013-07-17 01:55:00,73.6,70.2,30.23,NE,45,0.0,0.0,89,0.00,,,0.00,WUHU21523XXSP,2013-07-17 05:55:00,
2013-07-17 02:00:00,73.6,70.2,30.23,NE,45,0.0,0.0,89,0.00,,,0.00,WUHU21523XXSP,2013-07-17 06:00:00,
2013-07-17 02:05:00,73.6,70.5,30.23,NE,45,0.0,0.0,90,0.00,,,0.00,WUHU21523XXSP,2013-07-17 06:05:00,
2013-07-17 02:10:00,73.6,70.5,30.23,NE,45,0.0,0.0,90,0.00,,,0.00,WUHU21523XXSP,2013-07-17 06:10:00,
2013-07-17 02:15:00,73.6,70.5,30.24,NE,45,0.0,0.0,90,0.00,,,0.00,WUHU21523XXSP,2013-07-17 06:15:00,
2013-07-17 02:20:00,73.4,70.3,30.23,NE,45,0.0,0.0,90,0.00,,,0.00,WUHU21523XXSP,2013-07-17 06:20:00,
2013-07-17 02:25:00,73.4,70.3,30.24,NE,45,0.0,0.0,90,0.00,,,0.00,WUHU21523XXSP,2013-07-17 06:25:00,
2013-07-17 02:30:00,73.2,70.2,30.24,NE,45,0.0,0.0,90,0.00,,,0.00,WUHU21523XXSP,2013-07-17 06:30:00,
2013-07-17 02:35:00,73.2,70.2,30.24,NE,45,0.0,0.0,90,0.00,,,0.00,WUHU21523XXSP,2013-07-17 06:35:00,
2013-07-17 02:40:00,73.2,70.2,30.23,NE,45,0.0,0.0,90,0.00,,,0.00,WUHU21523XXSP,2013-07-17 06:40:00,
2013-07-17 02:45:00,73.2,70.2,30.23,NE,45,0.0,0.0,90,0.00,,,0.00,WUHU21523XXSP,2013-07-17 06:45:00,
2013-07-17 02:50:00,73.2,70.2,30.24,NE,45,0.0,0.0,90,0.00,,,0.00,WUHU21523XXSP,2013-07-17 06:50:00,
2013-07-17 02:55:00,73.2,70.2,30.24,NE,45,0.0,0.0,90,0.00,,,0.00,WUHU21523XXSP,2013-07-17 06:55:00,
2013-07-17 03:00:00,73.2,70.2,30.24,NE,45,0.0,0.0,90,0.00,,,0.00,WUHU21523XXSP,2013-07-17 07:00:00,
2013-07-17 03:05:00,73.2,70.2,30.23,NE,45,0.0,0.0,90,0.00,,,0.00,WUHU21523XXSP,2013-07-17 07:05:00,
2013-07-17 03:10:00,73.2,70.2,30.23,NE,45,0.0,0.0,90,0.00,,,0.00,WUHU21523XXSP,2013-07-17 07:10:00,
2013-07-17 03:15:00,73.2,70.2,30.23,NE,45,0.0,0.0,90,0.00,,,0.00,WUHU21523XXSP,2013-07-17 07:15:00,
2013-07-17 03:20:00,73.2,70.2,30.23,NE,45,0.0,0.0,90,0.00,,,0.00,WUHU21523XXSP,2013-07-17 07:20:00,
2013-07-17 03:25:00,73.2,70.2,30.23,NE,45,0.0,0.0,90,0.00,,,0.00,WUHU21523XXSP,2013-07-17 07:25:00,
2013-07-17 03:30:00,73.2,70.2,30.23,NE,45,0.0,0.0,90,0.00,,,0.00,WUHU21523XXSP,2013-07-17 07:30:00,
2013-07-17 03:35:00,73.0,70.0,30.24,NE,45,0.0,0.0,90,0.00,,,0.00,WUHU21523XXSP,2013-07-17 07:35:00,
2013-07-17 03:40:00,73.0,70.0,30.23,NE,45,0.0,0.0,90,0.00,,,0.00,WUHU21523XXSP,2013-07-17 07:40:00,
2013-07-17 03:45:00,73.0,70.0,30.24,NE,45,0.0,0.0,90,0.00,,,0.00,WUHU21523XXSP,2013-07-17 07:45:00,
2013-07-17 03:50:00,73.0,70.0,30.25,NE,45,0.0,0.0,90,0.00,,,0.00,WUHU21523XXSP,2013-07-17 07:50:00,
2013-07-17 03:55:00,73.0,70.0,30.25,NE,45,0.0,0.0,90,0.00,,,0.00,WUHU21523XXSP,2013-07-17 07:55:00,
2013-07-17 04:00:00,73.0,70.0,30.25,NE,45,0.0,0.0,90,0.00,,,0.00,WUHU21523XXSP,2013-07-17 08:00:00,
2013-07-17 04:05:00,73.0,70.0,30.24,NE,45,0.0,0.0,90,0.00,,,0.00,WUHU21523XXSP,2013-07-17 08:05:00,
2013-07-17 04:10:00,73.0,70.3,30.24,NE,45,0.0,0.0,91,0.00,,,0.00,WUHU21523XXSP,2013-07-17 08:10:00,
2013-07-17 04:15:00,73.0,70.3,30.24,NE,45,0.0,0.0,91,0.00,,,0.00,WUHU21523XXSP,2013-07-17 08:15:00,
2013-07-17 04:20:00,73.0,70.0,30.23,NE,45,0.0,0.0,90,0.00,,,0.00,WUHU21523XXSP,2013-07-17 08:20:00,
2013-07-17 04:25:00,73.0,70.0,30.24,NE,45,0.0,0.0,90,0.00,,,0.00,WUHU21523XXSP,2013-07-17 08:25:00,
2013-07-17 04:30:00,72.9,69.8,30.24,NE,45,0.0,0.0,90,0.00,,,0.00,WUHU21523XXSP,2013-07-17 08:30:00,
2013-07-17 04:35:00,72.9,69.8,30.23,NE,45,0.0,0.0,90,0.00,,,0.00,WUHU21523XXSP,2013-07-17 08:35:00,
2013-07-17 04:40:00,72.9,69.8,30.24,NE,45,0.0,0.0,90,0.00,,,0.00,WUHU21523XXSP,2013-07-17 08:40:00,
2013-07-17 04:45:00,72.9,69.8,30.23,NE,45,0.0,0.0,90,0.00,,,0.00,WUHU21523XXSP,2013-07-17 08:45:00,
2013-07-17 04:50:00,72.7,69.6,30.23,NE,45,0.0,0.0,90,0.00,,,0.00,WUHU21523XXSP,2013-07-17 08:50:00,
2013-07-17 04:55:00,72.7,69.6,30.23,NE,45,0.0,0.0,90,0.00,,,0.00,WUHU21523XXSP,2013-07-17 08:55:00,
2013-07-17 05:00:00,72.7,69.6,30.23,NE,45,0.0,0.0,90,0.00,,,0.00,WUHU21523XXSP,2013-07-17 09:00:00,
2013-07-17 05:05:00,72.5,69.7,30.24,NE,45,0.0,0.0,91,0.00,,,0.00,WUHU21523XXSP,2013-07-17 09:05:00,
2013-07-17 05:10:00,72.5,69.7,30.24,NE,45,0.0,0.0,91,0.00,,,0.00,WUHU21523XXSP,2013-07-17 09:10:00,
2013-07-17 05:15:00,72.5,69.7,30.24,NE,45,0.0,0.0,91,0.00,,,0.00,WUHU21523XXSP,2013-07-17 09:15:00,
2013-07-17 05:21:00,72.5,69.4,30.24,NE,45,0.0,0.0,90,0.00,,,0.00,WUHU21523XXSP,2013-07-17 09:21:00,
2013-07-17 05:30:00,72.5,69.7,30.25,NE,45,0.0,0.0,91,0.00,,,0.00,WUHU21523XXSP,2013-07-17 09:30:00,
2013-07-17 05:35:00,72.3,69.6,30.25,NE,45,0.0,0.0,91,0.00,,,0.00,WUHU21523XXSP,2013-07-17 09:35:00,
2013-07-17 05:40:00,72.3,69.6,30.25,NE,45,0.0,0.0,91,0.00,,,0.00,WUHU21523XXSP,2013-07-17 09:40:00,
2013-07-17 05:45:00,72.3,69.6,30.25,NE,45,0.0,0.0,91,0.00,,,0.00,WUHU21523XXSP,2013-07-17 09:45:00,
2013-07-17 05:50:00,72.3,69.6,30.25,NE,45,0.0,0.0,91,0.00,,,0.00,WUHU21523XXSP,2013-07-17 09:50:00,
2013-07-17 05:55:00,72.3,69.6,30.25,NE,45,0.0,0.0,91,0.00,,,0.00,WUHU21523XXSP,2013-07-17 09:55:00,
2013-07-17 06:00:00,72.3,69.6,30.25,NE,45,0.0,0.0,91,0.00,,,0.00,WUHU21523XXSP,2013-07-17 10:00:00,
2013-07-17 06:05:00,72.3,69.6,30.25,NE,45,0.0,0.0,91,0.00,,,0.00,WUHU21523XXSP,2013-07-17 10:05:00,
2013-07-17 06:10:00,72.5,69.7,30.25,NE,45,0.0,0.0,91,0.00,,,0.00,WUHU21523XXSP,2013-07-17 10:10:00,
2013-07-17 06:15:00,72.5,69.7,30.26,NE,45,0.0,0.0,91,0.00,,,0.00,WUHU21523XXSP,2013-07-17 10:15:00,
2013-07-17 06:20:00,72.5,69.7,30.26,NE,45,0.0,0.0,91,0.00,,,0.00,WUHU21523XXSP,2013-07-17 10:20:00,
2013-07-17 06:26:00,72.5,69.7,30.26,NE,45,0.0,0.0,91,0.00,,,0.00,WUHU21523XXSP,2013-07-17 10:26:00,
2013-07-17 06:36:00,72.5,69.7,30.26,NE,45,0.0,0.0,91,0.00,,,0.00,WUHU21523XXSP,2013-07-17 10:36:00,
2013-07-17 06:45:00,72.5,69.7,30.26,NE,45,0.0,0.0,91,0.00,,,0.00,WUHU21523XXSP,2013-07-17 10:45:00,
2013-07-17 06:50:00,72.5,69.7,30.25,NE,45,0.0,0.0,91,0.00,,,0.00,WUHU21523XXSP,2013-07-17 10:50:00,
2013-07-17 06:55:00,72.5,69.7,30.25,NE,45,0.0,0.0,91,0.00,,,0.00,WUHU21523XXSP,2013-07-17 10:55:00,
2013-07-17 07:00:00,72.5,69.7,30.25,NE,45,0.0,0.0,91,0.00,,,0.00,WUHU21523XXSP,2013-07-17 11:00:00,
2013-07-17 07:05:00,72.5,69.7,30.26,NE,45,0.0,0.0,91,0.00,,,0.00,WUHU21523XXSP,2013-07-17 11:05:00,
2013-07-17 07:10:00,72.5,69.7,30.25,NE,45,0.0,0.0,91,0.00,,,0.00,WUHU21523XXSP,2013-07-17 11:10:00,
2013-07-17 07:15:00,72.5,69.7,30.25,NE,45,0.0,0.0,91,0.00,,,0.00,WUHU21523XXSP,2013-07-17 11:15:00,
2013-07-17 07:20:00,72.5,69.7,30.26,NE,45,0.0,0.0,91,0.00,,,0.00,WUHU21523XXSP,2013-07-17 11:20:00,
2013-07-17 07:25:00,72.5,69.7,30.25,NE,45,0.0,0.0,91,0.00,,,0.00,WUHU21523XXSP,2013-07-17 11:25:00,
2013-07-17 07:30:00,72.5,69.7,30.26,NE,45,0.0,0.0,91,0.00,,,0.00,WUHU21523XXSP,2013-07-17 11:30:00,
2013-07-17 07:35:00,72.5,69.7,30.26,North,0,0.0,0.0,91,0.00,,,0.00,WUHU21523XXSP,2013-07-17 11:35:00,
2013-07-17 07:40:00,72.7,69.9,30.26,North,0,0.0,0.0,91,0.00,,,0.00,WUHU21523XXSP,2013-07-17 11:40:00,
2013-07-17 07:45:00,72.7,69.9,30.26,North,0,0.0,0.0,91,0.00,,,0.00,WUHU21523XXSP,2013-07-17 11:45:00,
2013-07-17 07:50:00,72.7,69.9,30.26,North,0,0.0,0.0,91,0.00,,,0.00,WUHU21523XXSP,2013-07-17 11:50:00,
2013-07-17 07:55:00,72.7,69.9,30.26,North,0,0.0,0.0,91,0.00,,,0.00,WUHU21523XXSP,2013-07-17 11:55:00,
2013-07-17 08:00:00,72.7,69.9,30.26,North,0,0.0,0.0,91,0.00,,,0.00,WUHU21523XXSP,2013-07-17 12:00:00,
2013-07-17 08:05:00,73.0,70.3,30.27,North,0,0.0,0.0,91,0.00,,,0.00,WUHU21523XXSP,2013-07-17 12:05:00,
2013-07-17 08:10:00,73.0,70.6,30.27,North,0,0.0,0.0,92,0.00,,,0.00,WUHU21523XXSP,2013-07-17 12:10:00,
2013-07-17 08:15:00,73.2,70.8,30.26,North,0,0.0,0.0,92,0.00,,,0.00,WUHU21523XXSP,2013-07-17 12:15:00,
2013-07-17 08:20:00,73.4,71.0,30.26,North,0,0.0,0.0,92,0.00,,,0.00,WUHU21523XXSP,2013-07-17 12:20:00,
2013-07-17 08:25:00,73.6,71.1,30.27,North,0,0.0,0.0,92,0.00,,,0.00,WUHU21523XXSP,2013-07-17 12:25:00,
2013-07-17 08:30:00,73.6,71.1,30.27,ENE,67,0.0,0.0,92,0.00,,,0.00,WUHU21523XXSP,2013-07-17 12:30:00,
2013-07-17 08:35:00,73.8,71.3,30.26,ENE,67,0.0,0.0,92,0.00,,,0.00,WUHU21523XXSP,2013-07-17 12:35:00,
2013-07-17 08:40:00,73.9,71.5,30.26,ENE,67,0.0,0.0,92,0.00,,,0.00,WUHU21523XXSP,2013-07-17 12:40:00,
2013-07-17 08:45:00,73.9,71.5,30.26,ENE,67,0.0,0.0,92,0.00,,,0.00,WUHU21523XXSP,2013-07-17 12:45:00,
2013-07-17 08:50:00,74.3,71.9,30.26,ENE,67,0.0,0.0,92,0.00,,,0.00,WUHU21523XXSP,2013-07-17 12:50:00,
2013-07-17 08:55:00,74.3,71.9,30.26,ENE,67,0.0,0.0,92,0.00,,,0.00,WUHU21523XXSP,2013-07-17 12:55:00,
2013-07-17 09:00:00,74.5,72.0,30.26,ENE,67,0.0,0.0,92,0.00,,,0.00,WUHU21523XXSP,2013-07-17 13:00:00,
2013-07-17 09:05:00,74.8,72.4,30.26,ENE,67,0.0,0.0,91,0.00,,,0.00,WUHU21523XXSP,2013-07-17 13:05:00,
2013-07-17 09:10:00,75.0,72.3,30.26,NE,45,0.0,0.0,91,0.00,,,0.00,WUHU21523XXSP,2013-07-17 13:10:00,
2013-07-17 09:15:00,75.0,72.3,30.26,NE,45,0.0,0.0,91,0.00,,,0.00,WUHU21523XXSP,2013-07-17 13:15:00,
2013-07-17 09:20:00,75.4,72.6,30.25,NE,45,0.0,0.0,91,0.00,,,0.00,WUHU21523XXSP,2013-07-17 13:20:00,
2013-07-17 09:25:00,75.6,72.8,30.26,NE,45,0.0,0.0,91,0.00,,,0.00,WUHU21523XXSP,2013-07-17 13:25:00,
2013-07-17 09:30:00,75.7,73.0,30.25,NE,45,0.0,0.0,91,0.00,,,0.00,WUHU21523XXSP,2013-07-17 13:30:00,
2013-07-17 09:35:00,75.9,72.9,30.26,NE,45,0.0,0.0,90,0.00,,,0.00,WUHU21523XXSP,2013-07-17 13:35:00,
2013-07-17 09:40:00,76.1,73.0,30.26,NE,45,0.0,0.0,90,0.00,,,0.00,WUHU21523XXSP,2013-07-17 13:40:00,
2013-07-17 09:45:00,76.3,73.2,30.26,NE,45,0.0,0.0,90,0.00,,,0.00,WUHU21523XXSP,2013-07-17 13:45:00,
2013-07-17 09:50:00,76.6,73.6,30.25,NE,45,0.0,0.0,90,0.00,,,0.00,WUHU21523XXSP,2013-07-17 13:50:00,
2013-07-17 09:55:00,76.6,73.6,30.25,NE,45,0.0,0.0,90,0.00,,,0.00,WUHU21523XXSP,2013-07-17 13:55:00,
2013-07-17 10:00:00,76.8,73.8,30.25,NE,45,0.0,0.0,90,0.00,,,0.00,WUHU21523XXSP,2013-07-17 14:00:00,
2013-07-17 10:05:00,77.5,74.1,30.25,NE,45,0.0,0.0,89,0.00,,,0.00,WUHU21523XXSP,2013-07-17 14:05:00,
2013-07-17 10:10:00,77.5,74.1,30.25,NE,45,0.0,0.0,89,0.00,,,0.00,WUHU21523XXSP,2013-07-17 14:10:00,
2013-07-17 10:15:00,77.7,74.3,30.25,NE,45,0.0,0.0,89,0.00,,,0.00,WUHU21523XXSP,2013-07-17 14:15:00,
2013-07-17 10:25:00,78.4,74.7,30.25,NE,45,0.0,0.0,88,0.00,,,0.00,WUHU21523XXSP,2013-07-17 14:25:00,
2013-07-17 10:30:00,78.6,74.8,30.25,NE,45,0.0,0.0,88,0.00,,,0.00,WUHU21523XXSP,2013-07-17 14:30:00,
2013-07-17 10:35:00,79.2,75.0,30.25,ENE,67,0.0,0.0,87,0.00,,,0.00,WUHU21523XXSP,2013-07-17 14:35:00,
2013-07-17 10:40:00,79.3,74.8,30.25,SE,135,0.0,0.0,86,0.00,,,0.00,WUHU21523XXSP,2013-07-17 14:40:00,
2013-07-17 10:46:00,79.5,75.0,30.25,SE,135,0.0,0.0,86,0.00,,,0.00,WUHU21523XXSP,2013-07-17 14:46:00,
2013-07-17 10:56:00,80.4,75.8,30.25,NE,45,0.0,0.2,86,0.00,,,0.00,WUHU21523XXSP,2013-07-17 14:56:00,
2013-07-17 11:00:00,80.4,75.5,30.25,ENE,67,0.0,0.0,85,0.00,,,0.00,WUHU21523XXSP,2013-07-17 15:00:00,
2013-07-17 11:05:00,80.8,75.8,30.25,NNE,22,1.8,1.8,85,0.00,,,0.00,WUHU21523XXSP,2013-07-17 15:05:00,
2013-07-17 11:10:00,81.0,76.0,30.25,NE,45,0.0,1.8,85,0.00,,,0.00,WUHU21523XXSP,2013-07-17 15:10:00,
2013-07-17 11:15:00,81.1,75.8,30.25,East,90,0.0,0.0,84,0.00,,,0.00,WUHU21523XXSP,2013-07-17 15:15:00,
2013-07-17 11:20:00,81.3,75.7,30.25,West,270,0.0,0.0,83,0.00,,,0.00,WUHU21523XXSP,2013-07-17 15:20:00,
2013-07-17 11:25:00,81.5,75.9,30.25,NNW,337,0.0,0.0,83,0.00,,,0.00,WUHU21523XXSP,2013-07-17 15:25:00,
2013-07-17 11:30:00,81.7,76.0,30.25,East,90,0.0,0.0,83,0.00,,,0.00,WUHU21523XXSP,2013-07-17 15:30:00,
2013-07-17 11:36:00,82.0,76.4,30.25,NE,45,0.0,0.0,83,0.00,,,0.00,WUHU21523XXSP,2013-07-17 15:36:00,
2013-07-17 11:41:00,82.2,76.2,30.25,NE,45,0.0,0.0,82,0.00,,,0.00,WUHU21523XXSP,2013-07-17 15:41:00,
2013-07-17 11:46:00,82.6,76.2,30.25,NNE,22,0.0,0.0,81,0.00,,,0.00,WUHU21523XXSP,2013-07-17 15:46:00,
2013-07-17 11:51:00,82.8,76.4,30.25,North,0,0.0,0.0,81,0.00,,,0.00,WUHU21523XXSP,2013-07-17 15:51:00,
2013-07-17 11:56:00,82.8,76.1,30.24,NNE,22,0.0,0.0,80,0.00,,,0.00,WUHU21523XXSP,2013-07-17 15:56:00,
2013-07-17 12:01:00,82.8,75.7,30.24,NNE,22,0.0,0.0,79,0.00,,,0.00,WUHU21523XXSP,2013-07-17 16:01:00,
2013-07-17 12:06:00,83.1,76.7,30.24,NNE,22,0.0,0.0,81,0.00,,,0.00,WUHU21523XXSP,2013-07-17 16:06:00,
2013-07-17 12:11:00,83.3,76.1,30.24,NE,45,0.0,0.0,79,0.00,,,0.00,WUHU21523XXSP,2013-07-17 16:11:00,
2013-07-17 12:16:00,83.5,76.3,30.24,NE,45,0.0,0.0,79,0.00,,,0.00,WUHU21523XXSP,2013-07-17 16:16:00,
2013-07-17 12:21:00,83.8,75.8,30.24,SSE,157,0.0,0.0,77,0.00,,,0.00,WUHU21523XXSP,2013-07-17 16:21:00,
2013-07-17 12:26:00,84.0,76.0,30.23,SSE,157,0.0,0.0,77,0.00,,,0.00,WUHU21523XXSP,2013-07-17 16:26:00,
2013-07-17 12:31:00,84.0,76.0,30.24,North,0,0.0,0.0,77,0.00,,,0.00,WUHU21523XXSP,2013-07-17 16:31:00,
2013-07-17 12:36:00,84.0,76.4,30.24,NNE,22,0.0,0.0,78,0.00,,,0.00,WUHU21523XXSP,2013-07-17 16:36:00,
2013-07-17 12:41:00,83.8,75.8,30.23,NNE,22,0.0,0.0,77,0.00,,,0.00,WUHU21523XXSP,2013-07-17 16:41:00,
2013-07-17 12:46:00,83.8,76.2,30.23,NNE,22,0.0,0.0,78,0.00,,,0.00,WUHU21523XXSP,2013-07-17 16:46:00,
2013-07-17 12:51:00,83.8,76.2,30.23,NNE,22,0.0,0.0,78,0.00,,,0.00,WUHU21523XXSP,2013-07-17 16:51:00,
2013-07-17 12:56:00,84.0,76.4,30.23,NE,45,0.0,0.0,78,0.00,,,0.00,WUHU21523XXSP,2013-07-17 16:56:00,
2013-07-17 13:01:00,84.0,76.4,30.23,NE,45,0.0,0.0,78,0.00,,,0.00,WUHU21523XXSP,2013-07-17 17:01:00,
2013-07-17 13:06:00,84.6,76.5,30.23,NE,45,0.0,0.0,77,0.00,,,0.00,WUHU21523XXSP,2013-07-17 17:06:00,
2013-07-17 13:11:00,84.7,76.7,30.22,North,0,0.0,0.0,77,0.00,,,0.00,WUHU21523XXSP,2013-07-17 17:11:00,
2013-07-17 13:16:00,84.9,76.5,30.22,North,0,0.0,0.0,76,0.00,,,0.00,WUHU21523XXSP,2013-07-17 17:16:00,
2013-07-17 13:21:00,85.3,77.3,30.22,NE,45,0.0,0.0,77,0.00,,,0.00,WUHU21523XXSP,2013-07-17 17:21:00,
2013-07-17 13:26:00,85.3,77.6,30.22,NE,45,0.0,0.0,78,0.00,,,0.00,WUHU21523XXSP,2013-07-17 17:26:00,
2013-07-17 13:31:00,85.3,77.3,30.22,ENE,67,0.0,0.0,77,0.00,,,0.00,WUHU21523XXSP,2013-07-17 17:31:00,
2013-07-17 13:36:00,85.3,77.3,30.21,ENE,67,0.0,0.0,77,0.00,,,0.00,WUHU21523XXSP,2013-07-17 17:36:00,
2013-07-17 13:41:00,85.3,77.3,30.21,NE,45,0.0,0.0,77,0.00,,,0.00,WUHU21523XXSP,2013-07-17 17:41:00,
2013-07-17 13:46:00,85.6,77.6,30.21,NE,45,1.3,1.3,77,0.00,,,0.00,WUHU21523XXSP,2013-07-17 17:46:00,
2013-07-17 13:51:00,85.6,77.2,30.20,ENE,67,0.0,1.3,76,0.00,,,0.00,WUHU21523XXSP,2013-07-17 17:51:00,
2013-07-17 13:56:00,85.5,77.4,30.20,ENE,67,0.0,0.0,77,0.00,,,0.00,WUHU21523XXSP,2013-07-17 17:56:00,
2013-07-17 14:01:00,85.8,77.8,30.20,NNW,337,0.0,0.0,77,0.00,,,0.00,WUHU21523XXSP,2013-07-17 18:01:00,
2013-07-17 14:06:00,86.2,77.3,30.20,West,270,0.0,0.0,75,0.00,,,0.00,WUHU21523XXSP,2013-07-17 18:06:00,
2013-07-17 14:11:00,86.5,77.7,30.20,NNW,337,0.0,0.0,75,0.00,,,0.00,WUHU21523XXSP,2013-07-17 18:11:00,
2013-07-17 14:16:00,86.7,77.9,30.20,ENE,67,0.0,0.0,75,0.00,,,0.00,WUHU21523XXSP,2013-07-17 18:16:00,
2013-07-17 14:21:00,86.9,77.2,30.19,NNE,22,0.0,0.0,73,0.00,,,0.00,WUHU21523XXSP,2013-07-17 18:21:00,
2013-07-17 14:26:00,87.4,76.9,30.19,NNW,337,0.0,0.0,71,0.00,,,0.00,WUHU21523XXSP,2013-07-17 18:26:00,
2013-07-17 14:31:00,87.6,76.9,30.19,NE,45,0.0,0.0,72,0.00,,,0.00,WUHU21523XXSP,2013-07-17 18:31:00,
2013-07-17 14:36:00,87.6,77.1,30.19,SSW,202,1.1,1.1,71,0.00,,,0.00,WUHU21523XXSP,2013-07-17 18:36:00,
2013-07-17 14:41:00,88.0,77.4,30.18,SW,225,0.0,1.1,71,0.00,,,0.00,WUHU21523XXSP,2013-07-17 18:41:00,
2013-07-17 14:46:00,88.2,78.4,30.18,SW,225,0.0,0.0,73,0.00,,,0.00,WUHU21523XXSP,2013-07-17 18:46:00,
2013-07-17 14:51:00,88.0,78.0,30.18,SW,225,0.0,0.0,72,0.00,,,0.00,WUHU21523XXSP,2013-07-17 18:51:00,
2013-07-17 14:56:00,87.8,77.2,30.18,South,180,0.0,2.5,71,0.00,,,0.00,WUHU21523XXSP,2013-07-17 18:56:00,
2013-07-17 15:01:00,87.6,77.5,30.19,SE,135,0.0,2.5,72,0.00,,,0.00,WUHU21523XXSP,2013-07-17 19:01:00,
2013-07-17 15:11:00,87.6,77.1,30.18,NE,45,0.9,0.9,71,0.00,,,0.00,WUHU21523XXSP,2013-07-17 19:11:00,
2013-07-17 15:16:00,88.0,77.4,30.18,NW,315,0.0,0.9,71,0.00,,,0.00,WUHU21523XXSP,2013-07-17 19:16:00,
2013-07-17 15:26:00,88.3,76.9,30.18,NE,45,0.0,0.0,69,0.00,,,0.00,WUHU21523XXSP,2013-07-17 19:26:00,
2013-07-17 15:31:00,88.5,77.1,30.18,South,180,0.0,0.0,69,0.00,,,0.00,WUHU21523XXSP,2013-07-17 19:31:00,
2013-07-17 15:36:00,88.5,76.6,30.17,NNW,337,0.0,0.0,68,0.00,,,0.00,WUHU21523XXSP,2013-07-17 19:36:00,
2013-07-17 15:41:00,88.7,76.6,30.17,NNW,337,0.0,0.0,68,0.00,,,0.00,WUHU21523XXSP,2013-07-17 19:41:00,
2013-07-17 15:46:00,88.5,76.6,30.16,NW,315,0.0,0.0,68,0.00,,,0.00,WUHU21523XXSP,2013-07-17 19:46:00,
2013-07-17 15:51:00,88.3,76.4,30.16,South,180,0.0,0.0,68,0.00,,,0.00,WUHU21523XXSP,2013-07-17 19:51:00,
2013-07-17 15:56:00,88.0,76.5,30.16,ENE,67,0.0,0.0,69,0.00,,,0.00,WUHU21523XXSP,2013-07-17 19:56:00,
2013-07-17 16:01:00,87.4,76.0,30.17,SE,135,0.0,0.0,69,0.00,,,0.00,WUHU21523XXSP,2013-07-17 20:01:00,
2013-07-17 16:06:00,87.1,76.2,30.17,North,0,0.0,0.0,70,0.00,,,0.00,WUHU21523XXSP,2013-07-17 20:06:00,
2013-07-17 16:11:00,86.9,75.5,30.16,ENE,67,0.0,0.0,69,0.00,,,0.00,WUHU21523XXSP,2013-07-17 20:11:00,
2013-07-17 16:16:00,86.7,76.2,30.16,ENE,67,0.0,0.0,71,0.00,,,0.00,WUHU21523XXSP,2013-07-17 20:16:00,
2013-07-17 16:21:00,86.4,75.9,30.16,ENE,67,0.0,0.0,71,0.00,,,0.00,WUHU21523XXSP,2013-07-17 20:21:00,
2013-07-17 16:26:00,86.2,75.8,30.16,NNE,22,0.0,0.0,71,0.00,,,0.00,WUHU21523XXSP,2013-07-17 20:26:00,
2013-07-17 16:31:00,86.2,75.8,30.16,NNW,337,0.0,0.0,71,0.00,,,0.00,WUHU21523XXSP,2013-07-17 20:31:00,
2013-07-17 16:36:00,86.0,75.2,30.17,NNE,22,0.0,0.0,70,0.00,,,0.00,WUHU21523XXSP,2013-07-17 20:36:00,
2013-07-17 16:41:00,86.2,76.2,30.16,NNE,22,0.0,0.0,72,0.00,,,0.00,WUHU21523XXSP,2013-07-17 20:41:00,
2013-07-17 16:46:00,86.2,76.2,30.15,WSW,247,0.0,0.0,72,0.00,,,0.00,WUHU21523XXSP,2013-07-17 20:46:00,
2013-07-17 16:51:00,86.2,76.2,30.15,West,270,0.0,0.0,72,0.00,,,0.00,WUHU21523XXSP,2013-07-17 20:51:00,
2013-07-17 17:01:00,86.9,77.6,30.15,NE,45,0.0,0.0,74,0.00,,,0.00,WUHU21523XXSP,2013-07-17 21:01:00,
2013-07-17 17:06:00,86.9,77.2,30.15,NW,315,0.0,0.0,73,0.00,,,0.00,WUHU21523XXSP,2013-07-17 21:06:00,
2013-07-17 17:11:00,86.9,77.2,30.15,WSW,247,0.0,0.0,73,0.00,,,0.00,WUHU21523XXSP,2013-07-17 21:11:00,
2013-07-17 17:16:00,86.7,77.5,30.15,NW,315,0.0,0.0,74,0.00,,,0.00,WUHU21523XXSP,2013-07-17 21:16:00,
2013-07-17 17:21:00,86.5,77.3,30.15,NE,45,0.0,0.0,74,0.00,,,0.00,WUHU21523XXSP,2013-07-17 21:21:00,
2013-07-17 17:26:00,86.5,77.3,30.15,NW,315,0.0,0.0,74,0.00,,,0.00,WUHU21523XXSP,2013-07-17 21:26:00,
2013-07-17 17:31:00,86.4,77.1,30.15,NNW,337,0.0,0.0,74,0.00,,,0.00,WUHU21523XXSP,2013-07-17 21:31:00,
2013-07-17 17:36:00,86.2,76.6,30.15,SW,225,0.0,0.0,73,0.00,,,0.00,WUHU21523XXSP,2013-07-17 21:36:00,
2013-07-17 17:41:00,86.0,76.4,30.15,SSE,157,0.0,0.0,73,0.00,,,0.00,WUHU21523XXSP,2013-07-17 21:41:00,
2013-07-17 17:46:00,85.8,76.2,30.15,North,0,0.0,0.0,73,0.00,,,0.00,WUHU21523XXSP,2013-07-17 21:46:00,
2013-07-17 17:51:00,85.6,76.0,30.15,North,0,1.6,1.6,73,0.00,,,0.00,WUHU21523XXSP,2013-07-17 21:51:00,
2013-07-17 17:56:00,85.5,75.8,30.15,WNW,292,0.0,1.6,73,0.00,,,0.00,WUHU21523XXSP,2013-07-17 21:56:00,
2013-07-17 18:01:00,85.3,75.7,30.15,North,0,2.0,2.0,73,0.00,,,0.00,WUHU21523XXSP,2013-07-17 22:01:00,
2013-07-17 18:06:00,84.9,75.3,30.16,North,0,0.0,2.0,73,0.00,,,0.00,WUHU21523XXSP,2013-07-17 22:06:00,
2013-07-17 18:11:00,84.9,75.3,30.16,North,0,0.0,2.0,73,0.00,,,0.00,WUHU21523XXSP,2013-07-17 22:11:00,
2013-07-17 18:16:00,84.7,75.1,30.15,North,0,0.0,0.0,73,0.00,,,0.00,WUHU21523XXSP,2013-07-17 22:16:00,
2013-07-17 18:21:00,84.7,75.5,30.15,North,0,0.0,0.0,74,0.00,,,0.00,WUHU21523XXSP,2013-07-17 22:21:00,
2013-07-17 18:26:00,84.6,74.9,30.15,NNW,337,0.0,0.0,73,0.00,,,0.00,WUHU21523XXSP,2013-07-17 22:26:00,
2013-07-17 18:31:00,84.4,74.8,30.15,NE,45,0.0,0.0,73,0.00,,,0.00,WUHU21523XXSP,2013-07-17 22:31:00,
2013-07-17 18:41:00,84.4,74.4,30.16,NE,45,0.0,0.0,72,0.00,,,0.00,WUHU21523XXSP,2013-07-17 22:41:00,
2013-07-17 18:46:00,84.0,74.0,30.15,NE,45,0.0,0.0,72,0.00,,,0.00,WUHU21523XXSP,2013-07-17 22:46:00,
2013-07-17 18:51:00,84.0,74.4,30.16,NE,45,0.0,0.0,73,0.00,,,0.00,WUHU21523XXSP,2013-07-17 22:51:00,
2013-07-17 18:56:00,84.0,74.4,30.16,NE,45,0.0,0.0,73,0.00,,,0.00,WUHU21523XXSP,2013-07-17 22:56:00,
2013-07-17 19:01:00,83.8,74.2,30.15,NE,45,0.0,0.0,73,0.00,,,0.00,WUHU21523XXSP,2013-07-17 23:01:00,
2013-07-17 19:06:00,83.8,74.2,30.15,NE,45,0.0,0.0,73,0.00,,,0.00,WUHU21523XXSP,2013-07-17 23:06:00,
2013-07-17 19:11:00,83.8,74.6,30.16,NE,45,0.0,0.0,74,0.00,,,0.00,WUHU21523XXSP,2013-07-17 23:11:00,
2013-07-17 19:16:00,83.8,74.6,30.16,NNE,22,0.0,0.0,74,0.00,,,0.00,WUHU21523XXSP,2013-07-17 23:16:00,
2013-07-17 19:21:00,83.8,74.6,30.16,NNE,22,0.0,0.0,74,0.00,,,0.00,WUHU21523XXSP,2013-07-17 23:21:00,
2013-07-17 19:26:00,83.8,75.0,30.16,NNE,22,0.0,0.0,75,0.00,,,0.00,WUHU21523XXSP,2013-07-17 23:26:00,
2013-07-17 19:31:00,83.7,74.9,30.16,NNE,22,0.0,0.0,75,0.00,,,0.00,WUHU21523XXSP,2013-07-17 23:31:00,
2013-07-17 19:36:00,83.7,74.9,30.16,NNE,22,0.0,0.0,75,0.00,,,0.00,WUHU21523XXSP,2013-07-17 23:36:00,
2013-07-17 19:41:00,83.5,74.7,30.16,NNE,22,0.0,0.0,75,0.00,,,0.00,WUHU21523XXSP,2013-07-17 23:41:00,
2013-07-17 19:46:00,83.3,74.9,30.16,NNE,22,0.0,0.0,76,0.00,,,0.00,WUHU21523XXSP,2013-07-17 23:46:00,
2013-07-17 19:51:00,83.3,74.9,30.16,ENE,67,0.0,0.0,76,0.00,,,0.00,WUHU21523XXSP,2013-07-17 23:51:00,
2013-07-17 19:56:00,83.1,74.4,30.16,ENE,67,0.0,0.0,75,0.00,,,0.00,WUHU21523XXSP,2013-07-17 23:56:00,
2013-07-17 20:01:00,82.9,74.2,30.16,ENE,67,0.0,0.0,75,0.00,,,0.00,WUHU21523XXSP,2013-07-18 00:01:00,
2013-07-17 20:06:00,82.9,74.6,30.16,North,0,0.0,0.0,76,0.00,,,0.00,WUHU21523XXSP,2013-07-18 00:06:00,
2013-07-17 20:11:00,82.8,74.4,30.16,North,0,0.0,0.0,76,0.00,,,0.00,WUHU21523XXSP,2013-07-18 00:11:00,
2013-07-17 20:16:00,82.6,74.2,30.16,North,0,0.0,0.0,76,0.00,,,0.00,WUHU21523XXSP,2013-07-18 00:16:00,
2013-07-17 20:21:00,82.6,74.2,30.16,NE,45,0.0,0.0,76,0.00,,,0.00,WUHU21523XXSP,2013-07-18 00:21:00,
2013-07-17 20:26:00,82.6,74.2,30.16,NE,45,0.0,0.0,76,0.00,,,0.00,WUHU21523XXSP,2013-07-18 00:26:00,
2013-07-17 20:31:00,82.2,73.9,30.16,NE,45,0.0,0.0,76,0.00,,,0.00,WUHU21523XXSP,2013-07-18 00:31:00,
2013-07-17 20:36:00,82.2,73.9,30.17,NE,45,0.0,0.0,76,0.00,,,0.00,WUHU21523XXSP,2013-07-18 00:36:00,
2013-07-17 20:41:00,82.2,74.3,30.17,NE,45,0.0,0.0,77,0.00,,,0.00,WUHU21523XXSP,2013-07-18 00:41:00,
2013-07-17 20:46:00,82.0,74.1,30.17,NE,45,0.0,0.0,77,0.00,,,0.00,WUHU21523XXSP,2013-07-18 00:46:00,
2013-07-17 20:51:00,81.9,74.0,30.17,NE,45,0.0,0.0,77,0.00,,,0.00,WUHU21523XXSP,2013-07-18 00:51:00,
2013-07-17 20:56:00,81.7,73.8,30.18,NE,45,0.0,0.0,77,0.00,,,0.00,WUHU21523XXSP,2013-07-18 00:56:00,
2013-07-17 21:01:00,81.7,74.2,30.18,NE,45,0.0,0.0,78,0.00,,,0.00,WUHU21523XXSP,2013-07-18 01:01:00,
2013-07-17 21:06:00,81.5,74.0,30.18,NE,45,0.0,0.0,78,0.00,,,0.00,WUHU21523XXSP,2013-07-18 01:06:00,
2013-07-17 21:11:00,81.5,74.0,30.18,NE,45,0.0,0.0,78,0.00,,,0.00,WUHU21523XXSP,2013-07-18 01:11:00,
2013-07-17 21:16:00,81.3,73.8,30.18,NE,45,0.0,0.0,78,0.00,,,0.00,WUHU21523XXSP,2013-07-18 01:16:00,
2013-07-17 21:21:00,81.1,73.7,30.18,NE,45,0.0,0.0,78,0.00,,,0.00,WUHU21523XXSP,2013-07-18 01:21:00,
2013-07-17 21:26:00,81.1,74.1,30.17,NE,45,0.0,0.0,79,0.00,,,0.00,WUHU21523XXSP,2013-07-18 01:26:00,
2013-07-17 21:31:00,81.0,73.9,30.18,NE,45,0.0,0.0,79,0.00,,,0.00,WUHU21523XXSP,2013-07-18 01:31:00,
2013-07-17 21:36:00,81.0,73.9,30.17,NE,45,0.0,0.0,79,0.00,,,0.00,WUHU21523XXSP,2013-07-18 01:36:00,
2013-07-17 21:41:00,80.8,73.7,30.17,NE,45,0.0,0.0,79,0.00,,,0.00,WUHU21523XXSP,2013-07-18 01:41:00,
2013-07-17 21:46:00,80.6,73.5,30.17,NE,45,0.0,0.0,79,0.00,,,0.00,WUHU21523XXSP,2013-07-18 01:46:00,
2013-07-17 21:51:00,80.4,73.4,30.17,NE,45,0.0,0.0,79,0.00,,,0.00,WUHU21523XXSP,2013-07-18 01:51:00,
2013-07-17 21:56:00,80.4,73.4,30.17,NE,45,0.0,0.0,79,0.00,,,0.00,WUHU21523XXSP,2013-07-18 01:56:00,
2013-07-17 22:01:00,80.4,73.8,30.17,NE,45,0.0,0.0,80,0.00,,,0.00,WUHU21523XXSP,2013-07-18 02:01:00,
2013-07-17 22:06:00,80.2,73.6,30.17,NE,45,0.0,0.0,80,0.00,,,0.00,WUHU21523XXSP,2013-07-18 02:06:00,
2013-07-17 22:11:00,80.2,73.6,30.17,NE,45,0.0,0.0,80,0.00,,,0.00,WUHU21523XXSP,2013-07-18 02:11:00,
2013-07-17 22:16:00,79.9,73.2,30.17,NE,45,0.0,0.0,80,0.00,,,0.00,WUHU21523XXSP,2013-07-18 02:16:00,
2013-07-17 22:21:00,79.9,73.2,30.17,NE,45,0.0,0.0,80,0.00,,,0.00,WUHU21523XXSP,2013-07-18 02:21:00,
2013-07-17 22:26:00,79.7,73.4,30.18,NE,45,0.0,0.0,81,0.00,,,0.00,WUHU21523XXSP,2013-07-18 02:26:00,
2013-07-17 22:31:00,79.5,73.2,30.18,NE,45,0.0,0.0,81,0.00,,,0.00,WUHU21523XXSP,2013-07-18 02:31:00,
2013-07-17 22:36:00,79.5,73.2,30.18,NE,45,0.0,0.0,81,0.00,,,0.00,WUHU21523XXSP,2013-07-18 02:36:00,
2013-07-17 22:41:00,79.5,73.2,30.18,NE,45,0.0,0.0,81,0.00,,,0.00,WUHU21523XXSP,2013-07-18 02:41:00,
2013-07-17 22:46:00,79.3,73.4,30.18,NE,45,0.0,0.0,82,0.00,,,0.00,WUHU21523XXSP,2013-07-18 02:46:00,
2013-07-17 22:51:00,79.2,73.2,30.18,NE,45,0.0,0.0,82,0.00,,,0.00,WUHU21523XXSP,2013-07-18 02:51:00,
2013-07-17 22:56:00,79.2,73.2,30.18,NE,45,0.0,0.0,82,0.00,,,0.00,WUHU21523XXSP,2013-07-18 02:56:00,
2013-07-17 23:01:00,79.0,73.0,30.18,North,0,0.0,0.0,82,0.00,,,0.00,WUHU21523XXSP,2013-07-18 03:01:00,
2013-07-17 23:06:00,78.8,73.0,30.18,North,0,0.0,0.0,82,0.00,,,0.00,WUHU21523XXSP,2013-07-18 03:06:00,
2013-07-17 23:11:00,78.6,72.7,30.18,North,0,0.0,0.0,82,0.00,,,0.00,WUHU21523XXSP,2013-07-18 03:11:00,
2013-07-17 23:16:00,78.6,72.7,30.18,North,0,0.0,0.0,82,0.00,,,0.00,WUHU21523XXSP,2013-07-18 03:16:00,
2013-07-17 23:21:00,78.6,72.7,30.18,North,0,0.0,0.0,82,0.00,,,0.00,WUHU21523XXSP,2013-07-18 03:21:00,
2013-07-17 23:26:00,78.4,72.9,30.18,North,0,0.0,0.0,83,0.00,,,0.00,WUHU21523XXSP,2013-07-18 03:26:00,
2013-07-17 23:31:00,78.1,72.5,30.18,North,0,0.0,0.0,83,0.00,,,0.00,WUHU21523XXSP,2013-07-18 03:31:00,
2013-07-17 23:36:00,78.1,72.5,30.19,North,0,0.0,0.0,83,0.00,,,0.00,WUHU21523XXSP,2013-07-18 03:36:00,
2013-07-17 23:41:00,77.9,72.3,30.18,North,0,0.0,0.0,83,0.00,,,0.00,WUHU21523XXSP,2013-07-18 03:41:00,
2013-07-17 23:46:00,77.7,72.1,30.18,North,0,0.0,0.0,83,0.00,,,0.00,WUHU21523XXSP,2013-07-18 03:46:00,
2013-07-17 23:51:00,77.5,72.0,30.18,North,0,0.0,0.0,83,0.00,,,0.00,WUHU21523XXSP,2013-07-18 03:51:00,
2013-07-17 23:56:00,77.5,72.0,30.18,North,0,0.0,0.0,83,0.00,,,0.00,WUHU21523XXSP,2013-07-18 03:56:00,